STARLINK-30188, 57432

Orbit data source: Space-Track

STARLINK-30188, 57432 is a payload satellite owned by SpaceX/Seattle (US) in LEO that was launched on Mon, 24 Jul 2023 UTC via an FALCON 9 launch vehicle from the Air Force Eastern Test Range (AFETR). Payload-class satellites include a variety of spacecraft equipped with specific instruments for various scientific and technological missions. These include communications satellites like Starlink; space stations such as the ISS; scientific satellites like the Hubble; Earth observation satellites from companies like Planet Labs, Umbra, and HawkEye 360; GPS; miniature CubeSats for education and research; and military/defense satellites.

Loading next visibility...
Identifier
57432, 2023-105C
Orbit
LEO
Country
Flag of USUS
Related business
Manufacturer
SpaceX/Seattle
Mission
Operational Commercial Communications
Bus & Motor
STARLINK V2M, Unknown motor
Mass
730 kg wet, ~700 kg dry
Launch date (UTC)
2023-07-24 (3 years ago)
Launch vehicle
FALCON 9
Launch site
Air Force Eastern Test Range (AFETR)
Object type
Payload
Rocket body
Debris
Shape & HBR
Box + 2 Pan, 17.7 m
Radar Cross Section
33.884 m², Large (>1 m²)

Expand to show TLE details & history
Last TLE update: 2 days ago

TLE from 2 days ago
0 STARLINK-30188
1 57432U 23105C   26171.41668980  .00040985  00000-0  13965-2 0  9993
2 57432  43.0029  43.3159 0002582 278.2426 322.9250 15.29707790  5885
Epoch: 2026-06-20T10:00Z
TLE epoch observation values (Epoch: 2026-06-20T10:00:01.998Z)
Latitude
-36.85607°
Longitude
-142.25579°
Altitude
486.027 km
Speed
7.623 km/s
True Right ascension
18h 25m 32s
True Declination
-36° 41' 05"
Sunlit
Object was in full shadow at epoch
Visualization orbit readout
Latitude
Unknown
Longitude
Unknown
Altitude
Unknown
Speed
Unknown
Apparent Right ascension
Unknown
Apparent Declination
Unknown
Sunlit
N/A
Visualization observer readout
Local Sidereal Time
21:33:37
Azimuth
Unknown
Elevation
Unknown
Doppler factor
Unknown
Orbital elements
Apogee altitude
480.402 km
Perigee altitude
476.861 km
Semi-major axis
6,856.769 km
Eccentricity
0.00026
Inclination
43.0029°
RAAN
43.3159°
Arg. of periapsis
278.2426°
True anomaly
322.90716°
Mean anomaly
322.925°
Eccentric anomaly
322.91608°
Mean motion
3.82264 °/min
Orbital period
94.18 mins
BSTAR
0.0013965
Loading maneuver chart data...
Computing Atmospheric mass density...

Documentation

Showing up to 5 results
|